EDT,Max TemperatureF,Mean TemperatureF,Min TemperatureF,Max Dew PointF,MeanDew PointF,Min DewpointF,Max Humidity, Mean Humidity, Min Humidity, Max Sea Level PressureIn, Mean Sea Level PressureIn, Min Sea Level PressureIn, Max VisibilityMiles, Mean VisibilityMiles, Min VisibilityMiles, Max Wind SpeedMPH, Mean Wind SpeedMPH, Max Gust SpeedMPH,PrecipitationIn, CloudCover, Events, WindDirDegrees
2013-4-1,37,32,26,30,17,9,87,60,37,30.09,29.90,29.69,10,9,2,22,16,38,0.00,6,Snow,302
2013-4-2,39,29,21,17,12,9,78,49,30,30.25,30.15,30.09,10,10,10,20,11,31,0.00,3,,286
2013-4-3,39,30,21,18,12,7,72,47,30,30.43,30.35,30.25,10,10,10,16,8,26,0.00,2,,299
2013-4-4,54,41,28,20,15,12,67,38,20,30.36,30.14,29.95,10,10,10,14,7,21,0.00,3,,213
2013-4-5,46,39,30,30,20,15,81,50,30,30.22,30.09,29.94,10,10,9,15,8,21,0.00,3,,7
2013-4-6,48,38,28,24,19,15,69,47,30,30.25,30.10,29.80,10,10,10,20,9,29,0.00,7,,136
2013-4-7,57,46,36,43,34,23,79,60,35,30.04,29.83,29.61,10,10,8,25,14,37,0.00,7,Rain,264
2013-4-8,63,48,33,51,39,29,93,82,56,30.05,29.88,29.71,10,8,2,22,8,36,0.11,6,Rain,145
2013-4-9,46,42,39,45,42,37,100,93,74,30.09,29.98,29.88,10,4,1,15,9,25,1.30,8,Rain-Thunderstorm,54
2013-4-10,44,40,37,43,39,35,100,95,89,30.02,29.95,29.84,10,6,2,30,9,39,0.27,8,Rain-Thunderstorm,40
2013-4-11,37,36,35,37,35,33,100,95,92,29.99,29.88,29.65,10,7,2,20,12,29,0.74,8,Rain,71
2013-4-12,41,37,33,37,34,31,100,90,70,29.75,29.61,29.51,10,7,2,15,8,23,0.36,8,Rain,273
2013-4-13,41,37,35,36,29,25,92,73,60,29.99,29.82,29.74,10,9,2,22,13,32,0.01,8,Rain-Snow,250
2013-4-14,46,38,30,33,29,23,82,68,53,30.12,30.04,29.96,10,10,8,14,6,22,0.00,6,Rain-Snow,163
2013-4-15,68,52,39,54,43,32,89,66,49,29.97,29.93,29.88,10,10,9,17,9,31,0.03,5,Rain,159
2013-4-16,61,54,46,52,42,30,93,70,36,30.24,30.02,29.86,10,10,8,17,10,24,0.01,7,Rain,294
2013-4-17,57,47,37,43,35,28,93,68,40,30.35,30.21,30.04,10,9,1,20,10,28,0.64,6,Rain-Thunderstorm,81
2013-4-18,77,60,44,63,54,41,97,86,56,30.01,29.70,29.56,10,9,0,34,13,45,0.67,7,Rain-Thunderstorm,180
2013-4-19,57,47,36,57,39,26,100,79,58,29.73,29.51,29.31,10,8,3,25,12,44,0.42,8,Rain-Snow,224
2013-4-20,37,32,28,28,21,13,81,61,46,30.45,30.06,29.71,10,9,1,24,16,43,0.00,6,Snow,283
2013-4-21,46,35,24,25,22,19,91,60,38,30.63,30.55,30.47,10,10,7,14,3,22,0.00,2,,129
2013-4-22,59,46,33,33,28,24,86,53,30,30.47,30.34,30.21,10,10,8,13,6,16,0.00,1,,123
2013-4-23,69,56,42,54,41,32,94,64,35,30.19,29.97,29.81,10,8,1,20,7,30,0.29,5,Rain,175
2013-4-24,54,44,33,54,37,25,100,90,62,30.13,29.86,29.75,10,6,1,18,8,23,0.48,7,Rain-Snow,311
2013-4-25,50,42,34,37,30,25,87,66,41,30.35,30.16,30.09,10,10,6,20,9,29,0.05,4,Rain,240
2013-4-26,57,42,28,34,29,25,89,56,34,30.46,30.39,30.34,10,10,10,13,4,18,0.00,4,,188
2013-4-27,68,52,37,38,33,27,89,50,23,30.36,30.26,30.12,10,10,6,13,5,20,0.00,2,,152
2013-4-28,55,50,46,52,46,32,100,81,48,30.11,29.94,29.85,10,5,1,10,6,,0.15,7,Rain,106
2013-4-29,66,58,51,52,51,49,100,83,52,29.93,29.89,29.84,10,7,0,10,3,,0.02,8,Fog,262
2013-4-30,70,62,54,55,53,51,94,76,53,30.08,30.01,29.94,10,8,2,26,8,38,0.32,5,Rain,166